Regional Weather Roundup
Issued by NWS

Home | Current Version | Previous Version | Text Only | Print | Product List | Glossary On
Versions: 1 2 3 4 5 6 7 8 9 10 11 12 13 14 15 16 17 18 19 20 21 22 23 24 25 26 27 28 29 30 31 32 33 34 35 36 37 38 39 40 41 42 43 44 45 46 47 48 49 50
790
ASUS44 KEWX 212212
RWRTX
SOUTH TEXAS REGIONAL WEATHER ROUNDUP
NATIONAL WEATHER SERVICE AUSTIN/SAN ANTONIO TX
500 PM CDT FRI JUL 21 2017

NOTE: "FAIR" INDICATED FEW OR NO CLOUDS BELOW 12,000 FEET WITH NO
SIGNIFICANT WEATHER AND/OR OBSTRUCTIONS TO VISIBILITY.

* - THESE STATIONS ARE NOT NWS OR FAA STATIONS...AND ARE NOT SUBJECT
    TO NWS AND FAA QUALITY CONTROL.

TXZ171-172-183>190-212300-
TEXAS HILL COUNTRY AND EDWARDS PLATEAU

CITY           SKY/WX    TMP DP  RH WIND       PRES   REMARKS
JUNCTION       PTSUNNY   98  60  28 SE8G17    29.95F HX  98
*LLANO           N/A    N/A N/A N/A MISG        N/A
BURNET         SUNNY     99  57  24 S6        29.97F HX  98
*HORSESHOE BAY SUNNY     96  59  28 S7        29.94F HX  96
*KERRVILLE     SUNNY     97  62  31 S8        29.98F HX  98
*FREDERICKSBRG SUNNY     96  55  25 S7        29.98F HX  94
*ROCKSPRINGS   MOSUNNY  N/A N/A N/A S9G18     30.02F
*BOERNE STAGE  SUNNY    N/A N/A N/A SE12      29.98F
*CASTROVILLE   MOSUNNY  102  56  21 SE12G18   29.94F HX 100
HONDO          SUNNY    103  59  23 SE14      29.92F HX 103
*UVALDE        SUNNY    100  58  25 E10G20    29.91F HX  99
DEL RIO        PTSUNNY  101  61  26 SE12G20   29.87F HX 102
LAUGHLIN AFB   MOSUNNY  100  62  28 SE10G17   29.88F HX 102
CARRIZO SPRGS  MOSUNNY  104  59  22 SE14G21   29.86F HX 104
*EAGLE PASS    CLEAR    106  57  20 S10G16    29.87F HX 105
$$

TXZ173-191>194-202-209-217>225-228-212300-
CENTRAL AND SOUTH CENTRAL TEXAS

CITY           SKY/WX    TMP DP  RH WIND       PRES   REMARKS
GEORGETOWN     MOSUNNY   99  64  32 S12G18    29.92F HX 101
AUSTIN/BERGSTM MOSUNNY  100  63  29 SE9       29.92F HX 102
AUSTIN/MABRY   MOSUNNY  102  63  27 VRB5      29.94F HX 104
*AUSTIN/EXEC     N/A     99  64  32 SW7       29.94F HX 101
*LAGO VISTA    SUNNY     99  61  28 SE9       29.97F HX 100
SAN MARCOS     SUNNY     99  63  30 S14       29.94F HX 100
NEW BRAUNFELS  SUNNY    100  63  29 S12       29.92F HX 102
RANDOLPH AFB   MOSUNNY   99  62  29 SE12      29.93F HX 101
PT SAN ANTONIO MOSUNNY  100  63  29 SE13      29.91F HX 102
SAN ANTONIO    MOSUNNY   99  62  29 SE16      29.94F HX 100
STINSON FIELD  SUNNY    102  61  25 SE18      29.90F HX 103
*LA GRANGE     SUNNY     96  70  41 S3        29.91F HX 102
*GIDDINGS      MOSUNNY   98  64  32 CALM      29.94F HX 100
*GONZALES      MOSUNNY   99  71  40 S3        29.92F HX 107
$$

TXZ163>164-176>182-195>201-210>213-226-227-235-212300-
SOUTHEAST TEXAS

CITY           SKY/WX    TMP DP  RH WIND       PRES   REMARKS
COLLEGE STN    MOSUNNY   97  68  38 VRB5      29.93F HX 102
*BRYAN         MOSUNNY   94  69  43 CALM      29.95F HX  98
*CALDWELL      NOT AVBL
*CROCKETT      SUNNY     93  73  52 S5        29.97F HX 102
*BRENHAM       PTSUNNY   96  67  38 SE3       29.94F HX 100
HUNTSVILLE     MOSUNNY   95  67  39 VRB5      29.96F HX  99
CONROE         MOSUNNY   90  74  59 E6        29.95F HX  99
HOUSTON BUSH   PTSUNNY   90  73  57 SE13      29.94F HX  98
HOUSTON HOBBY  CLOUDY    93  75  55 SE13      29.95F HX 104
*HOUSTON SW AP CLOUDY    91  75  60 S5        29.96F HX 102
PEARLAND       CLOUDY    87  70  56 S13       29.98F HX  92
HOUSTON HOOKS  CLOUDY    93  69  45 S5        29.94F HX  98
ELLINGTON FLD  PTSUNNY   90  72  55 S16       29.98F HX  96
SUGAR LAND     CLOUDY    95  73  48 S13       29.94F HX 104
*HOUSTON EXEC  CLOUDY    95  72  46 S12       29.95F HX 103
*CLEVELAND MUN CLOUDY    94  74  51 E5        29.95F HX 104
*WHARTON       MOSUNNY   93  71  47 S15       29.96F HX 100
*COLUMBUS      FAIR      92  70  48 SE10G16   29.95S HX  97
*EAGLE LAKE    CLEAR     96  75  51 S10       29.94F HX 107
$$

TXZ214>216-236>238-212300-
THE UPPER TEXAS COAST

CITY           SKY/WX    TMP DP  RH WIND       PRES   REMARKS
*ORANGE        PTSUNNY   91  75  60 S9        29.99S HX 102
PORT ARTHUR    MOSUNNY   85  77  77 S5        29.97F HX  95
GALVESTON      PTSUNNY   88  79  74 SE10      29.98F HX 103
ANGLETON       MOSUNNY   91  75  59 S15       29.97F HX 101
*BAY CITY      MOSUNNY   92  74  54 S14       29.96F HX 102
PALACIOS       MOSUNNY   89  74  60 S14       29.96F HX  98
$$

TXZ229>234-239>247-212300-
TEXAS COASTAL BEND AND RIO GRANDE PLAINS

CITY           SKY/WX    TMP DP  RH WIND       PRES   REMARKS
VICTORIA       MOSUNNY   96  70  42 S12G21    29.94F HX 102
*BEEVILLE      MOSUNNY   96  70  42 SE14G20   29.92F HX 102
ROCKPORT       SUNNY     91  76  61 SE15      29.95F HX 103
*PORT ARANSAS  MOSUNNY   89  77  68 S12G18    29.96F HX 100
*PORT LAVACA   MOSUNNY   91  74  56 SE16      29.95F HX 100
*INGLESIDE     SUNNY     91  77  63 MISG      29.95F HX 104
CORPUS CHRISTI MOSUNNY   93  75  55 SE15G22   29.94F HX 104
CORPUS NAS     MOSUNNY   92  78  63 SE21      29.95F HX 107
*ROBSTOWN      SUNNY     96  71  44 SE16      29.93F HX 103
ALICE          MOSUNNY   98  69  38 SE17      29.91F HX 104
KINGSVILLE NAS MOSUNNY   96  75  50 SE18G26   29.92F HX 108
COTULLA        MOSUNNY  103  56  21 SE13G25   29.88F HX 102
*FAITH RANCH   SUNNY    104  55  20 SE12G23   29.87F HX 103
LAREDO         SUNNY    105  61  23 SE17G24   29.90F HX 106
$$

TXZ248>255-212300-
DEEP SOUTH TEXAS

CITY           SKY/WX    TMP DP  RH WIND       PRES   REMARKS
BROWNSVILLE    LGT RAIN  90  75  61 SE18      29.94F HX 100
PORT ISABEL    MOSUNNY   92  75  57 SE22G29   29.93F HX 103
*SOUTH PADRE   NOT AVBL
HARLINGEN      MOSUNNY   97  72  44 SE20G26   29.91F HX 105
*HEBBRONVILLE  MOSUNNY   99  62  29 S13G18    29.92F HX  99
MCALLEN        MOSUNNY  100  67  33 SE20G25   29.90F HX 105
*WESLACO       MOSUNNY   97  70  40 S18G25    29.90F HX 103
FALFURRIAS     MOSUNNY   97  71  42 SE14G22   29.90F HX 104
EDINBURG       MOSUNNY  101  63  28 S16G24    29.90F HX 104
*ZAPATA        SUNNY    103  58  22 SE10G20   29.86F HX 103
$$

TXZ213>215-236>238-242>244-246-247-251-254-255-212300-
CMAN STATIONS

STATION/POSITION TIME  TEMP    WIND        PRES    WAVE
                       AIR SEA DIR/SP/G            HT/PER
                 (UTC) (F)     (DEG/KT/KT) (MB)    (FT/S)
SABINE PASS      2148   89 90  200/  4/  6 1016.9
SEA RIM ST PARK  2200   87     170/  7/  8 1015.8
NORTH JETTY/GLS  2148      89  160/  9/ 11 1014.6
EAGLE POINT      2148   87 91  180/ 13/ 15 1014.9
MORGANS POINT    2148   88 88  160/ 10/ 13 1014.7
MISSION/ARANSAS  2100          150/ 14     1015.0
PORT O`CONNOR    2148   86     170/ 12/ 15 1014.3
PORT ARANSAS     2200   85 89  140/ 14/ 15 1014.6
MALAQUITE BEACH  2148   85 88  130/ 16/ 18 1013.7
BAFFIN BAY       2148   86 91              1014.1
PORT ISABEL      2148   87 86              1014.2
$$

GMZ080-GMZ150>470-212300-
OFFSHORE BUOY REPORTS

STATION/POSITION TIME  TEMP    WIND        PRES    WAVE
                       AIR SEA DIR/SP/G            HT/PER
                 (UTC) (F)     (DEG/KT/KT) (MB)    (FT/S)
20 E GALVESTON   2050   86 90  170/  6/  8 1015.9    1/ 5
90 E PT ARANSAS  2150   86 89  160/  6/  8 1015.4    1/ 5
35 NE PT MANSFLD 2150   85     150/ 12/ 14 1013.8    2/ 5
200 E PT ISABEL  2150   86 89  180/  4/  6 1016.0    1/ 5
$$




USA.gov is the U.S. government's official web portal to all federal, state and local government web resources and services.